Location: Newark
(55.7083°N, 13.1992°E)
Time: 20:14:23
(UTC+00:00)

Tiros 1 - Visible Passes

Search period start: 16 February 2020 00:00
Search period end: 26 February 2020 00:00
Orbit: 630 x 664 km, 48.4° (Epoch: 16 February)

Date Brightness Start Highest point End Pass type
(mag) Time Alt. Az. Time Alt. Az. Time Alt. Az.
16 Feb 9.4 03:35:44 13° SSE 03:37:01 15° SSE 03:39:33 10° ESE visible
16 Feb 8.7 05:14:12 10° SW 05:18:13 29° SSE 05:22:12 10° ESE visible
17 Feb 8.9 04:00:47 18° S 04:02:32 22° SSE 04:06:05 10° ESE visible
17 Feb 8.4 05:39:48 10° WSW 05:43:56 33° S 05:48:06 10° ESE visible
18 Feb 9.6 02:48:06 13° SE 02:48:06 13° SE 02:49:23 10° ESE visible
18 Feb 8.5 04:25:45 18° SSW 04:28:12 29° SSE 04:32:11 10° ESE visible
19 Feb 9.0 03:13:01 21° SSE 03:13:01 21° SSE 03:16:01 10° ESE visible
19 Feb 8.3 04:50:40 15° SW 04:53:55 33° S 04:58:04 10° ESE visible
20 Feb 8.4 03:37:54 28° S 03:38:11 28° SSE 03:42:08 10° ESE visible
20 Feb 8.3 05:15:33 10° WSW 05:19:41 33° S 05:23:49 10° ESE visible
21 Feb 9.7 02:25:05 13° ESE 02:25:05 13° ESE 02:25:56 10° ESE visible
21 Feb 8.2 04:02:45 29° SSW 04:03:54 33° S 04:08:02 10° ESE visible
21 Feb 8.5 05:41:26 10° WSW 05:45:24 29° SSW 05:49:23 10° SE visible
22 Feb 9.1 02:49:56 21° SE 02:49:56 21° SE 02:52:05 10° ESE visible
22 Feb 8.2 04:27:35 22° SW 04:29:40 33° S 04:33:49 10° ESE visible
23 Feb 8.4 03:14:46 30° SSE 03:14:46 30° SSE 03:18:00 10° ESE visible
23 Feb 8.3 04:52:25 15° WSW 04:55:23 29° SSW 04:59:23 10° SE visible
24 Feb 10.0 02:01:57 10° ESE 02:01:57 10° ESE 02:02:02 10° ESE visible
24 Feb 8.0 03:39:36 33° S 03:39:38 33° S 03:43:48 10° ESE visible
24 Feb 8.7 05:17:27 10° WSW 05:21:03 23° SSW 05:24:39 10° SSE visible
25 Feb 9.4 02:26:48 16° ESE 02:26:48 16° ESE 02:27:59 10° ESE visible
25 Feb 8.1 04:04:28 28° SW 04:05:22 30° SSW 04:09:24 10° SE visible
